Lid_Strength_Index
2 1 1 1 1 1 2 2 1 1 2 1 1 1 1 1 1 1 1 1 2 1 2 2 2 1 1 2 2 3 4 4 5 4 2 2 2 1 1 1 2 2 2
2 2 2 1 1 1 1 2 2 1 1 3 1 1 1 1 1 1 1 1 1 2 1 2 2 2 2 1 2 2 3 3 4 5 3 2 2 2 2 1 1 1 1
2 2 2 2 1 2 1 1 1 2 1 1 1 1 1 1 1 1 1 1 1 1 1 2 2 2 2 2 3 1 2 3 3 4 4 2 2 2 2 2 1 1 0
2 2 2 2 2 1 1 1 1 1 2 1 1 1 1 1 1 1 1 1 1 1 1 1 1 2 2 3 3 3 2 2 4 3 4 3 2 1 2 2 2 1 2
2 2 2 2 1 1 1 1 1 1 1 2 1 1 1 1 1 1 1 1 1 1 1 1 1 1 2 3 3 3 4 3 3 4 4 4 4 3 3 2 2 1 1
2 2 2 2 2 2 1 1 1 1 1 1 1 1 1 1 3 4 1 1 1 1 2 1 1 2 3 4 5 4 4 4 4 3 3 3 3 3 2 2 2 3 4
2 2 2 2 2 2 1 1 2 2 1 1 1 1 1 1 5 5 4 1 1 1 1 1 1 1 2 1 4 5 5 5 4 4 4 2 2 2 2 3 2 3 3
2 2 2 2 2 2 2 2 2 1 2 2 1 1 1 1 6 7 5 2 1 1 1 1 1 1 1 1 1 2 3 3 4 4 4 4 3 2 2 1 1 2 2
3 2 2 2 2 2 2 2 2 2 2 2 1 1 2 1 7 7 6 2 1 1 1 1 1 1 3 6 1 2 2 2 3 6 6 6 7 6 4 3 2 3 4
3 2 2 2 2 2 2 2 2 2 2 2 2 1 3 1 7 9 7 2 2 2 1 1 5 2 6 8 3 2 3 2 1 2 4 5 7 6 6 3 3 3 3
2 2 2 2 2 2 2 2 2 2 2 2 2 2 1 2 2 10 10 2 2 2 2 2 1 7 9 10 9 1 2 1 2 2 2 3 3 4 4 3 2 2 3
2 2 2 2 2 2 2 2 2 2 2 2 2 2 2 1 7 10 11 9 4 2 2 1 1 8 10 10 9 7 8 7 2 2 2 2 3 4 4 3 2 2 1
3 3 2 2 2 2 2 2 2 2 3 3 3 3 3 2 2 10 11 11 10 4 1 3 7 10 11 11 11 9 9 4 2 2 3 2 2 2 3 3 3 2 2
3 3 3 3 3 3 2 2 2 3 3 3 3 3 3 2 2 2 5 8 10 9 7 4 6 8 10 7 7 8 7 5 3 3 2 2 1 2 4 4 4 4 4
3 4 3 3 3 3 5 5 2 2 3 3 3 2 3 3 3 9 7 4 5 7 7 5 4 3 3 2 2 3 3 5 5 4 3 2 2 2 4 3 4 5 5
4 3 3 3 3 3 6 9 15 17 17 15 13 7 12 14 17 17 16 16 16 15 7 5 4 4 3 3 3 2 2 3 3 3 2 2 2 3 3 4 4 4 5
4 5 4 4 3 3 3 7 9 11 17 18 18 17 16 16 17 17 17 16 16 13 7 6 5 4 3 3 2 2 3 2 1 2 2 2 2 2 3 4 4 5 5
3 8 5 4 4 4 4 6 7 8 9 10 14 15 19 19 19 18 18 15 11 10 8 8 8 7 5 3 3 2 2 2 2 2 2 2 2 3 3 3 4 4 4
3 3 4 5 6 6 6 6 6 7 8 9 10 13 16 19 19 17 16 10 10 9 6 4 4 4 2 2 2 2 2 2 2 2 2 2 2 2 3 3 3 7 6
4 5 4 4 5 6 6 7 7 8 9 10 9 9 11 11 10 9 9 7 5 5 5 4 3 2 2 2 2 2 2 2 2 2 2 2 2 3 4 5 5 5 5
3 3 5 4 5 5 6 8 7 8 9 9 9 11 14 8 7 4 4 4 4 4 4 3 3 3 3 3 3 2 2 2 2 3 3 2 3 4 4 5 4 4 4
3 4 5 5 5 5 7 7 7 7 7 8 8 8 11 3 4 4 4 3 3 3 3 3 3 3 2 1 2 2 2 3 2 2 2 2 3 3 3 3 4 4 5
4 5 5 6 6 7 7 7 6 6 6 5 5 4 4 4 4 5 5 5 5 4 3 3 2 2 2 1 1 3 3 4 3 3 3 3 3 3 3 3 4 4 5
6 5 6 7 7 7 7 7 7 8 6 6 6 6 6 6 7 7 7 7 8 8 8 8 8 9 9 7 4 3 3 2 3 3 3 3 4 4 4 6 6 6 6
6 6 7 7 7 7 7 7 7 7 8 8 9 9 8 8 8 8 9 9 8 9 9 10 10 11 12 12 13 13 14 16 8 8 4 5 5 6 6 6 7 8 8
6 7 7 7 7 8 8 7 8 8 8 9 9 10 10 10 10 10 10 10 10 9 9 9 10 10 11 11 13 15 18 17 12 13 5 5 6 6 6 7 8 8 8